Probability
0 0 0 0 0 0 0 0 0 0 0 0 0 0 0 0 0 0 0 0 0 0 0 0 0 0 3 3 0 0 0 0 0 0 0 0 0 0 0 0 0 0 0
0 0 0 0 0 0 0 0 0 0 0 0 0 0 0 0 0 0 0 0 0 0 0 0 0 0 0 0 0 0 0 0 0 0 0 0 0 0 0 0 0 0 0
0 0 0 0 0 0 0 0 0 0 0 0 0 0 0 0 0 0 0 0 0 0 0 0 0 0 0 0 0 0 0 0 0 0 0 0 0 0 0 0 0 0 0
0 0 0 0 0 0 0 0 0 0 0 0 0 0 0 0 0 0 0 0 0 0 0 0 0 0 0 0 0 0 0 0 0 0 0 0 0 0 0 0 0 0 0
0 0 0 0 0 0 0 0 0 0 0 0 0 0 0 0 0 0 0 0 0 0 0 0 0 0 0 0 0 0 0 0 0 0 0 0 0 0 0 0 0 0 0
0 0 0 0 0 0 0 0 0 0 0 0 0 0 0 0 0 0 0 0 0 0 0 0 0 0 0 0 0 0 0 0 0 0 0 0 0 0 0 0 0 0 0
0 0 0 0 0 0 0 0 0 0 0 0 0 0 0 0 0 0 0 0 0 0 0 0 0 0 0 0 0 0 0 0 0 3 3 0 0 0 0 0 0 0 0
0 0 0 0 0 0 0 0 0 0 0 0 0 0 0 0 0 0 0 0 0 0 0 0 0 0 0 0 0 0 0 0 0 0 0 0 0 0 0 0 0 0 0
0 0 0 0 0 0 0 0 0 0 0 0 0 0 0 0 0 0 0 0 0 0 0 0 0 0 0 0 0 0 0 0 0 0 0 0 0 0 0 0 0 0 0
0 0 0 0 0 0 0 0 0 0 0 0 0 0 0 0 0 0 0 0 0 0 0 0 0 0 0 0 0 0 0 0 0 0 0 0 0 0 0 0 0 0 0
0 0 0 0 0 0 0 0 0 0 0 0 0 0 0 0 0 0 0 0 0 0 0 0 0 0 0 0 0 0 0 0 0 0 0 0 0 0 0 0 0 0 0
0 0 0 0 0 0 0 0 0 0 0 0 0 0 0 0 0 0 0 0 0 0 0 0 0 0 0 0 0 0 0 0 0 0 0 0 0 0 0 0 0 0 0
0 0 0 0 0 0 0 0 0 0 0 0 0 0 0 0 0 0 0 0 0 0 0 0 0 0 0 0 0 0 0 0 0 0 0 0 0 0 0 0 0 0 0
0 0 0 0 0 0 0 0 0 0 0 0 0 0 0 0 0 0 0 0 0 0 0 0 0 0 0 0 0 0 0 0 0 0 0 0 0 0 0 0 0 0 0
0 0 0 0 0 0 0 0 0 0 0 0 0 0 0 0 0 0 0 0 0 0 0 0 0 0 0 0 0 0 0 0 0 0 0 0 0 0 0 0 0 0 0
0 0 0 0 0 0 0 0 0 0 0 0 0 0 0 0 0 0 0 0 0 0 0 0 0 0 0 0 0 0 0 0 0 0 0 0 0 0 0 0 0 0 0
0 0 0 0 0 0 0 0 0 0 0 0 0 0 0 0 0 0 0 0 0 0 0 0 0 0 0 0 0 0 0 0 0 0 0 0 0 0 0 0 0 0 0
0 0 0 0 0 0 0 0 0 0 0 0 0 0 0 0 0 0 0 0 0 0 0 0 0 0 0 0 0 0 0 0 0 0 0 0 0 0 0 0 0 0 0
0 0 0 0 0 0 0 0 0 0 0 0 0 0 0 0 0 0 0 0 0 0 0 0 0 0 0 0 0 0 0 0 0 0 0 0 0 0 0 0 0 0 0
0 0 0 0 0 0 0 0 0 0 0 0 0 0 0 0 0 0 0 0 0 0 0 0 0 0 0 0 0 0 0 0 0 0 0 0 0 0 0 0 0 0 0
0 0 0 0 0 0 0 0 0 0 0 0 0 0 0 0 0 0 0 0 0 0 0 0 0 0 0 0 0 0 0 0 0 0 0 0 0 0 0 0 0 0 0
0 0 0 0 0 0 0 0 0 0 0 0 0 0 0 0 0 0 0 0 0 0 0 0 0 0 0 0 0 0 0 0 0 0 0 0 0 0 0 0 0 0 0
0 0 0 0 0 0 0 0 0 0 0 0 0 0 0 0 0 0 0 0 0 0 0 0 0 0 0 0 0 0 0 0 0 0 0 0 0 0 0 0 0 0 0
0 0 0 0 0 0 0 0 0 0 0 0 0 0 0 0 0 0 0 0 0 0 0 0 0 0 0 0 0 0 0 0 0 0 0 0 0 0 0 0 0 0 0
0 0 0 0 0 0 0 0 0 0 0 0 0 0 0 0 0 0 0 0 0 0 0 0 0 0 0 0 0 0 0 0 0 0 0 0 0 0 0 0 0 0 0
0 0 0 0 0 0 0 0 0 0 0 0 0 0 0 0 0 0 0 0 0 0 0 0 0 0 0 0 0 0 0 0 0 0 0 0 0 0 0 0 0 0 0
Height
5784 5786 5787 5789 5791 5792 5793 5793 5794 5794 5795 5795 5796 5796 5796 5796 5796 5796 5795 5795 5794 5794 5793 5792 5791 5790 5788 5787 5785 5783 5782 5780 5778 5776 5774 5772 5770 5768 5766 5764 5761 5759 5757
5776 5778 5780 5781 5783 5784 5785 5786 5787 5787 5788 5788 5788 5789 5789 5789 5789 5788 5788 5788 5787 5786 5785 5784 5783 5782 5781 5779 5777 5776 5774 5772 5770 5768 5766 5764 5761 5759 5757 5755 5752 5750 5748
5768 5770 5772 5773 5775 5776 5777 5778 5779 5780 5780 5781 5781 5781 5781 5781 5781 5781 5780 5780 5779 5778 5777 5776 5775 5774 5772 5771 5769 5767 5766 5764 5762 5760 5757 5755 5753 5750 5748 5746 5743 5741 5738
5760 5761 5763 5765 5766 5768 5769 5770 5771 5771 5772 5773 5773 5773 5773 5773 5773 5772 5772 5771 5771 5770 5769 5768 5767 5765 5764 5762 5760 5759 5757 5755 5753 5750 5748 5746 5743 5741 5739 5736 5733 5731 5728
5750 5752 5754 5756 5758 5759 5760 5761 5762 5763 5763 5764 5764 5764 5764 5764 5764 5764 5763 5762 5762 5761 5760 5759 5757 5756 5754 5753 5751 5749 5747 5745 5743 5741 5738 5736 5734 5731 5728 5726 5723 5720 5717
5741 5743 5745 5746 5748 5749 5751 5751 5752 5753 5754 5754 5755 5755 5755 5755 5755 5754 5753 5753 5752 5751 5750 5749 5747 5746 5744 5743 5741 5739 5737 5735 5733 5731 5728 5726 5723 5721 5718 5715 5712 5709 5707
5732 5733 5735 5737 5738 5740 5741 5741 5742 5743 5744 5744 5745 5745 5746 5745 5745 5744 5743 5742 5741 5740 5739 5738 5736 5735 5733 5732 5730 5728 5726 5724 5722 5720 5717 5715 5713 5710 5707 5704 5701 5698 5695
5722 5723 5725 5726 5727 5729 5730 5731 5732 5733 5733 5733 5734 5734 5735 5736 5735 5734 5733 5732 5730 5729 5727 5726 5724 5723 5722 5720 5718 5717 5715 5713 5711 5708 5706 5704 5702 5699 5696 5693 5690 5687 5683
5712 5713 5714 5715 5716 5718 5719 5720 5721 5721 5722 5722 5722 5722 5723 5723 5724 5724 5722 5720 5718 5717 5715 5714 5712 5711 5709 5708 5706 5704 5703 5701 5699 5697 5695 5692 5690 5687 5684 5681 5678 5675 5671
5701 5702 5703 5704 5705 5706 5707 5708 5709 5709 5710 5711 5710 5710 5710 5709 5709 5710 5711 5709 5707 5705 5704 5702 5700 5698 5696 5695 5693 5692 5690 5688 5687 5685 5682 5680 5678 5675 5672 5669 5666 5663 5659
5689 5690 5691 5692 5693 5694 5695 5696 5697 5697 5698 5699 5699 5698 5698 5697 5696 5696 5697 5697 5695 5694 5692 5690 5688 5686 5683 5682 5680 5678 5677 5675 5674 5672 5670 5668 5665 5663 5660 5657 5654 5651 5648
5677 5678 5680 5680 5681 5682 5683 5684 5684 5685 5686 5686 5686 5686 5685 5685 5684 5683 5683 5683 5683 5682 5679 5677 5675 5673 5671 5669 5667 5665 5664 5662 5661 5659 5657 5655 5653 5650 5648 5645 5642 5639 5636
5665 5666 5667 5668 5669 5670 5671 5671 5672 5672 5673 5673 5673 5673 5672 5672 5671 5670 5669 5669 5669 5669 5667 5666 5663 5661 5659 5656 5654 5653 5651 5650 5648 5646 5645 5643 5640 5638 5635 5633 5630 5627 5624
5653 5654 5655 5656 5657 5657 5658 5658 5659 5659 5660 5660 5660 5660 5659 5659 5658 5657 5656 5655 5655 5656 5655 5654 5652 5649 5647 5645 5643 5641 5640 5638 5636 5634 5632 5630 5627 5625 5623 5620 5617 5615 5612
5639 5640 5642 5643 5644 5645 5646 5646 5647 5647 5647 5647 5647 5647 5646 5646 5645 5644 5643 5642 5641 5642 5643 5643 5641 5638 5635 5633 5631 5629 5628 5626 5624 5622 5620 5618 5615 5613 5611 5608 5606 5603 5601
5626 5628 5629 5631 5632 5633 5633 5634 5634 5634 5634 5634 5634 5634 5634 5633 5633 5632 5631 5629 5628 5628 5629 5630 5628 5626 5624 5621 5619 5617 5616 5614 5612 5610 5608 5605 5603 5601 5598 5596 5594 5591 5589
5614 5615 5617 5618 5619 5620 5621 5621 5621 5621 5621 5621 5621 5621 5621 5620 5620 5619 5618 5617 5617 5616 5616 5617 5616 5614 5612 5610 5608 5606 5605 5603 5601 5599 5596 5594 5592 5589 5587 5584 5582 5580 5577
5601 5603 5604 5605 5606 5607 5608 5608 5609 5609 5609 5609 5609 5609 5609 5608 5608 5607 5607 5606 5605 5604 5603 5604 5604 5602 5601 5599 5597 5595 5594 5592 5590 5588 5585 5582 5580 5577 5575 5573 5571 5568 5566
5589 5590 5592 5593 5594 5595 5595 5596 5597 5597 5597 5597 5597 5597 5597 5597 5597 5596 5595 5594 5593 5592 5591 5592 5592 5591 5590 5588 5586 5585 5583 5581 5579 5577 5574 5572 5569 5566 5564 5562 5560 5558 5555
5577 5578 5579 5580 5582 5583 5584 5584 5585 5585 5586 5586 5586 5586 5586 5586 5586 5585 5584 5583 5582 5581 5580 5580 5580 5580 5579 5577 5576 5575 5573 5571 5569 5566 5564 5561 5558 5556 5553 5552 5550 5547 5545
5565 5566 5567 5569 5570 5571 5572 5573 5574 5574 5574 5575 5575 5575 5575 5575 5574 5574 5574 5573 5572 5571 5570 5570 5570 5569 5568 5567 5566 5565 5563 5561 5559 5557 5555 5552 5549 5546 5543 5541 5539 5537 5535
5553 5555 5556 5558 5559 5560 5561 5562 5563 5563 5563 5564 5564 5565 5565 5564 5564 5563 5562 5562 5562 5561 5561 5560 5560 5559 5558 5557 5556 5554 5553 5552 5550 5549 5545 5543 5540 5537 5534 5532 5530 5528 5527
5542 5544 5546 5547 5548 5549 5550 5551 5551 5551 5552 5553 5554 5554 5554 5554 5553 5553 5553 5552 5552 5551 5551 5551 5550 5549 5549 5548 5546 5545 5543 5542 5541 5539 5536 5534 5531 5528 5525 5523 5521 5520 5519
5533 5535 5536 5537 5538 5539 5540 5540 5540 5541 5542 5543 5543 5544 5544 5543 5543 5543 5543 5543 5542 5542 5541 5541 5541 5540 5539 5538 5536 5535 5534 5533 5531 5529 5527 5525 5522 5520 5517 5515 5513 5512 5511
5524 5525 5526 5527 5528 5530 5530 5530 5530 5531 5532 5532 5533 5533 5533 5533 5533 5533 5533 5533 5533 5532 5532 5531 5531 5530 5529 5529 5527 5526 5525 5524 5522 5521 5518 5516 5514 5511 5509 5508 5506 5505 5504
5516 5516 5517 5518 5519 5520 5521 5521 5521 5521 5522 5522 5523 5523 5523 5523 5523 5523 5523 5523 5523 5523 5523 5522 5522 5521 5520 5519 5518 5517 5516 5515 5514 5513 5511 5508 5506 5504 5503 5501 5499 5498 5497
Wind_Speed
34 34 33 33 33 32 32 31 31 30 29 29 29 30 30 30 30 30 30 31 31 31 31 31 31 31 31 31 32 32 32 32 33 33 34 34 34 34 35 35 36 37 37
36 35 35 34 34 34 33 33 33 32 31 31 31 31 31 31 31 31 31 32 32 33 33 32 32 33 33 33 34 34 34 34 35 35 36 36 36 35 36 37 37 37 38
37 37 36 36 36 36 36 36 35 35 34 33 33 33 33 33 33 32 32 33 34 34 34 34 34 35 35 36 36 36 37 37 37 37 37 37 37 37 37 38 38 39 39
39 39 39 38 38 38 38 38 37 37 37 36 35 35 35 35 35 34 34 35 35 35 36 36 37 37 38 38 38 38 39 39 39 39 39 38 39 39 39 39 40 41 41
40 41 40 40 40 40 40 40 39 39 38 38 37 37 37 37 37 36 36 36 36 37 38 39 39 40 40 40 40 41 41 41 41 41 40 40 40 41 41 40 41 42 42
40 41 42 42 42 42 42 41 41 41 40 40 39 39 38 38 38 38 38 38 39 39 40 40 40 41 41 42 42 43 43 43 43 42 42 43 43 43 43 43 42 42 43
41 42 43 44 44 44 43 43 43 42 42 42 41 41 41 40 39 39 40 40 41 42 42 42 43 43 44 44 44 44 45 45 44 44 44 44 44 44 44 44 44 43 43
44 44 45 46 46 45 45 44 43 42 43 43 44 43 43 42 41 41 42 43 44 44 45 45 45 45 45 45 45 45 45 46 46 45 45 45 45 45 45 45 45 45 45
45 45 45 46 46 46 46 46 44 44 44 44 44 44 44 44 44 44 43 44 44 45 45 46 46 47 47 47 47 47 46 46 45 45 46 46 46 47 47 46 46 46 46
46 46 46 47 47 48 48 46 46 46 45 45 45 45 46 46 46 46 45 45 45 45 46 46 46 47 47 47 47 47 46 47 46 46 46 47 47 47 47 47 46 46 45
48 48 48 47 47 47 48 47 47 47 47 47 47 47 48 48 48 48 47 46 46 46 46 47 47 47 47 46 46 46 46 46 46 46 47 47 47 47 47 46 45 45 44
49 49 49 48 48 48 48 48 47 47 47 48 48 48 48 48 48 48 48 48 47 46 46 47 47 47 46 46 45 45 45 46 46 47 47 48 48 47 46 46 45 44 43
49 49 50 50 49 48 47 48 49 48 47 47 48 49 49 48 48 48 49 48 48 47 46 45 46 45 45 44 44 44 45 45 46 47 47 48 47 46 46 46 44 43 43
50 50 50 50 50 49 47 47 48 49 48 47 48 48 48 47 48 48 48 48 47 46 45 45 46 45 45 45 45 45 45 45 45 46 46 47 46 46 46 45 44 43 43
50 50 50 50 49 48 48 48 48 48 48 47 46 46 47 47 47 47 48 47 47 46 45 45 45 46 45 45 45 44 44 44 45 46 46 46 46 46 45 45 44 44 44
48 48 49 49 49 49 49 49 48 48 48 47 46 46 47 47 47 46 46 46 46 45 44 44 45 45 45 44 44 44 44 44 44 45 45 45 45 45 45 45 44 43 42
46 46 47 47 48 49 49 49 49 49 48 48 48 47 46 45 46 46 45 44 44 45 44 43 44 45 44 43 43 43 44 43 43 44 44 45 45 45 44 44 43 42 42
45 46 46 46 47 47 47 47 46 46 46 47 47 47 45 44 45 45 45 46 46 46 45 44 43 43 43 43 43 43 43 43 43 43 43 43 43 43 43 41 41 41 41
44 44 44 45 45 45 45 46 45 45 45 45 45 44 44 43 43 44 44 44 45 45 45 44 42 41 41 41 41 41 42 42 42 42 41 42 42 41 40 39 39 39 38
43 44 44 44 44 45 45 45 44 44 44 44 43 43 43 43 43 42 42 42 42 43 42 41 40 39 39 39 39 40 40 41 41 40 40 40 40 39 38 37 38 37 37
42 42 42 43 43 43 43 43 43 43 43 43 42 42 42 43 43 42 41 40 40 39 39 38 38 38 38 38 39 40 40 40 40 39 39 39 38 37 37 36 36 36 34
40 41 40 41 41 41 42 42 42 42 41 41 41 42 42 42 42 42 41 39 38 38 37 37 37 37 37 38 38 39 38 37 37 37 37 36 37 36 35 35 34 33 31
39 39 40 40 40 40 41 41 41 41 41 41 41 40 40 41 41 40 39 38 37 37 37 37 36 37 37 37 36 36 36 36 35 36 36 35 35 34 33 32 31 30 28
35 36 37 38 38 39 39 39 39 40 40 40 40 40 39 38 38 38 38 39 39 38 37 36 36 36 36 36 36 35 35 35 35 35 34 33 33 33 31 30 28 28 28
31 32 33 35 36 37 37 38 38 38 38 38 38 37 37 37 37 37 38 38 38 37 36 35 35 36 36 36 35 35 34 33 33 32 32 32 31 31 29 28 29 28 28
29 30 31 32 33 34 35 35 36 35 35 35 36 36 36 35 35 36 36 35 35 36 35 35 35 34 34 34 33 32 32 31 31 30 30 29 29 28 27 27 27 27 26
Wind_Direction
254 255 256 258 260 262 264 266 267 268 270 271 273 274 274 274 274 276 277 278 279 281 282 284 286 288 290 291 291 291 291 291 292 292 292 293 293 292 292 292 292 293 292
254 257 257 258 259 261 263 265 267 269 270 271 273 274 274 274 275 276 276 277 279 281 281 283 285 286 288 289 290 291 291 291 291 291 292 293 293 292 292 293 292 291 291
254 256 256 257 259 261 263 265 266 268 270 271 272 273 274 275 275 276 277 278 279 280 281 283 284 285 287 288 290 290 290 290 290 290 290 291 292 292 293 293 292 291 290
254 255 255 257 259 261 263 264 266 267 269 270 271 271 273 274 274 276 277 279 279 280 281 283 284 285 286 287 288 289 289 289 289 289 289 290 291 291 292 292 292 291 290
255 254 254 256 258 260 262 265 266 268 268 269 270 271 272 273 274 275 277 277 278 279 281 282 283 284 285 286 287 287 288 288 288 288 288 289 291 291 291 292 291 291 291
257 255 255 257 259 260 262 264 265 267 268 269 270 271 272 273 274 275 276 277 278 279 280 281 282 284 285 286 286 286 286 286 286 287 287 288 289 290 291 291 291 290 291
258 258 257 258 259 260 262 264 265 266 268 269 270 271 272 273 275 276 277 278 278 279 280 281 282 283 284 285 285 285 285 285 285 285 286 287 288 289 289 290 290 290 290
258 259 261 260 260 259 261 263 264 266 267 269 271 272 272 273 274 276 278 279 279 280 280 281 281 283 284 284 283 284 284 283 284 284 285 285 286 287 288 289 289 289 290
258 259 262 261 261 260 262 264 265 267 269 270 271 272 273 274 275 275 277 279 280 280 280 281 281 282 282 282 282 281 281 281 282 283 284 284 285 286 287 287 288 288 290
259 260 261 263 263 264 264 265 266 268 269 270 271 273 274 275 276 276 277 278 279 279 280 282 283 284 284 284 283 281 280 280 280 282 283 284 284 284 285 286 287 288 289
259 260 262 264 265 265 265 264 265 267 267 269 271 272 273 274 275 277 278 279 279 280 281 282 283 283 283 283 283 282 281 280 281 281 282 283 284 285 285 286 288 288 289
261 262 263 265 265 265 265 264 265 266 267 269 270 271 273 274 276 278 279 279 279 280 280 282 282 283 284 284 283 283 282 280 281 281 282 284 284 285 285 287 287 287 287
261 262 263 264 265 266 266 266 266 266 267 269 270 270 272 274 276 278 278 278 278 279 280 281 281 282 283 283 284 285 284 282 282 282 283 284 284 285 286 286 287 287 286
262 262 263 263 264 265 266 267 267 268 268 269 270 270 271 273 275 277 277 278 277 278 279 279 280 281 282 283 284 284 283 283 283 283 284 284 284 285 286 286 287 287 286
261 261 262 262 263 264 265 266 267 268 269 269 269 269 270 272 275 277 277 277 277 278 279 279 279 280 281 282 283 283 283 283 283 284 285 284 285 286 287 288 287 286 286
261 261 262 262 263 263 264 266 267 268 269 269 268 268 270 272 274 276 276 276 277 278 279 279 280 281 281 281 281 281 283 284 284 285 285 285 286 287 288 287 286 286 286
260 260 262 262 262 263 265 266 267 268 269 270 270 270 270 271 273 274 275 276 277 278 279 280 281 280 280 281 281 282 283 284 285 286 286 286 287 287 287 286 286 286 286
261 261 262 262 263 264 265 266 267 269 270 270 271 271 271 272 274 275 276 276 277 279 279 280 280 279 279 280 282 283 285 285 286 286 287 287 287 287 287 285 285 286 286
261 263 263 263 263 264 265 265 267 268 269 270 270 271 272 273 275 275 276 277 278 279 279 279 278 278 279 281 282 284 286 287 287 287 288 288 288 286 285 284 286 287 287
260 262 263 262 263 264 265 265 266 268 268 269 270 271 272 274 274 275 276 277 278 278 278 278 277 278 279 281 283 286 287 288 288 288 289 290 290 287 285 285 286 286 286
261 261 262 262 262 263 263 263 265 267 267 267 268 269 271 273 274 275 276 277 278 278 278 277 277 278 279 281 283 285 286 288 288 289 290 291 290 288 286 286 287 286 287
260 261 262 262 262 262 263 264 265 267 267 267 268 269 270 272 273 275 276 277 277 278 278 278 278 278 280 281 283 285 286 286 286 288 290 290 290 289 287 286 286 286 286
261 261 262 262 262 264 264 265 266 267 267 267 268 270 271 272 273 274 274 275 277 278 278 280 280 279 280 281 283 283 284 285 286 288 290 290 290 290 288 287 287 286 285
264 263 264 264 264 265 266 266 267 268 267 267 269 269 271 273 274 273 273 273 275 277 279 279 280 279 279 280 281 283 284 285 287 289 290 290 290 291 290 287 286 286 285
267 267 267 266 266 266 266 267 268 268 268 268 269 269 271 273 274 273 273 274 275 277 278 278 278 278 278 279 282 284 284 284 285 287 290 292 291 291 289 287 286 286 286
270 270 269 268 266 265 266 268 269 269 270 270 270 270 271 273 274 273 273 274 275 276 277 277 277 277 279 281 282 283 283 283 284 286 289 291 292 291 289 287 287 286 286